Вернуться в каталог

KUIPER-00476

АктивенСвязьVLEO
NORAD 68874·PAYLOAD·🇺🇸 United States

Запущен Apr 28, 2026 с Cape Canaveral Space Force Station

Loading…

Ближайшие Пролёты (ближайшие 24 часа)

TLE

СвежийSource: CelesTrak SupGP

Эпоха: Sep 14, 2026, 20:48 UTC

1 68874C 26095L   26257.86684028 -.01111600  00000+0 -94921-1 0  2573
2 68874  51.8905 174.5633 0011447 254.9528 225.0903 14.98241701    13

Отслеживайте KUIPER-00476 в реальном времени с AllMySat

Download on the App Store